Zurück zum Katalog

COSMOS 1275 DEB

AktivPO
NORAD 12708·DEBRIS·🇷🇺 Russia

Gestartet Jun 4, 1981 von Plesetsk Cosmodrome

Loading…

Nächste Überflüge (nächste 24 Stunden)

TLE

AktuellSource: Space-Track

Epoche: Sep 14, 2026, 12:33 UTC

1 12708U 81053BC  26257.52297759  .00008335  00000-0  12438-2 0  9992
2 12708  82.8598 323.3678 0017622 232.7074 127.2531 14.74614452327051

Verfolge COSMOS 1275 DEB in Echtzeit mit AllMySat

Download on the App Store